Location: Recife
(8.0585°S, 34.8848°W)
Time: 02:56:06
(UTC-03:00)

Vanguard 3 - Pass Details

Date: 20 April 2026
Orbit: 507 x 3205 km, 33.4° (Epoch: 15 May)

Event Time Altitude Azimuth Distance (km) Brightness Sun altitude
Rises 03:39:06 0° 345° (NNW) 3,226 10.2 -25.8°
Reaches altitude 10° 03:41:59 10° 5° (N) 2,604 9.9 -25.1°
Maximum altitude 03:46:15 18° 48° (NE) 2,513 10.3 -24.1°
Drops below altitude 10° 03:52:08 10° 88° (E) 3,776 11.7 -22.7°
Sets 03:57:34 0° 103° (ESE) 5,366 12.5 -21.3°
